#timestamp,LO_Frequency,Hit,StdDev 
1635915615.5,286046993.0,N
1635915635.3,286046990.3,N
1635915655.1,286046990.8,N
1635915675.9,286046991.2,N
1635915695.7,286046990.0,N
1635915715.6,286046988.3,N
1635915735.4,286046989.3,N
1635915755.2,286046989.4,N
1635915775.1,286046989.4,N
1635915776.0,286046989.4,N
1635915795.8,286046994.1,N
1635915815.6,286046994.6,N
1635915835.5,286046993.5,N
1635915855.3,286046997.5,N
1635915875.2,286046997.2,N
1635915895.0,286046998.9,N
1635915895.9,286046998.9,N
1635915915.7,286047002.7,N
1635915935.6,286046998.3,N
1635915955.4,286046999.3,N
1635915975.3,286046994.5,N
1635915995.1,286046992.1,N
1635915996.0,286046992.1,N
1635916015.8,286046990.3,N
1635916035.7,286046992.8,N
1635916055.5,286046990.5,N
1635916075.4,286046993.0,N
1635916095.2,286046994.9,N
1635916115.0,286047000.5,N
1635916115.9,286047000.5,N
1635916135.8,286047002.7,N
1635916155.6,286047000.1,N
1635916175.4,286047003.1,N
1635916195.3,286047001.4,N
1635916215.1,286047000.4,N
1635916235.9,286046996.5,N
1635916255.7,286046999.4,N
1635916275.5,286046998.1,N
1635916295.4,286047000.3,N
1635916315.2,286047005.6,N
1635916335.1,286046999.7,N
1635916336.0,286046999.7,N
1635916355.8,286046998.1,N
1635916375.6,286047002.0,N
1635916395.5,286047001.1,N
1635916415.3,286046997.5,N
1635916435.1,286046994.3,N
1635916455.9,286046988.9,N
1635916475.7,286046988.8,N
1635916495.6,286046989.6,N
1635916515.4,286046989.5,N
1635916535.2,286046991.4,N
1635916555.1,286046989.7,N
1635916556.0,286046989.7,N
1635916575.8,286046986.0,N
1635916595.6,286046982.6,Y
1635916615.5,286046984.0,P
1635916635.3,286046988.2,N
1635916655.2,286046990.0,N
1635916675.9,286046988.3,N
1635916695.7,286046987.7,Y
1635916715.6,286046992.0,P
1635916735.4,286046991.8,P
1635916755.2,286046990.9,P
1635916775.1,286046987.9,Y
1635916776.0,286046987.9,P
1635916795.8,286046999.9,N
1635916815.7,286047001.8,N
1635916835.5,286047004.8,N
1635916855.3,286047006.6,N
1635916875.2,286047010.5,N
1635916895.0,286047006.1,N
1635916895.9,286047006.1,N
1635916915.8,286047007.9,N
1635916935.6,286047007.7,N
1635916955.4,286047012.6,N
1635916975.3,286047016.9,N
1635916995.1,286047017.5,N
1635917015.9,286047017.3,N
1635917035.7,286047021.9,N
1635917055.5,286047024.9,N
1635917075.4,286047025.4,N
1635917095.2,286047020.7,N
1635917115.0,286047016.7,N
1635917115.9,286047016.7,N
1635917135.8,286047009.7,N
1635917155.6,286047012.0,N
1635917175.5,286047011.0,N
1635917195.3,286047010.8,N
1635917215.1,286047008.5,N
1635917235.9,286047009.7,N
1635917255.7,286047013.2,N
1635917275.5,286047013.0,N
1635917295.4,286047016.1,N
1635917315.2,286047016.3,N
1635917335.1,286047019.1,N
1635917336.0,286047019.1,Y
1635917355.8,286047006.1,P
1635917375.6,286047006.4,N
1635917395.5,286047006.2,N
1635917415.3,286047008.4,N
1635917435.2,286047003.2,N
1635917455.9,286047002.8,N
1635917475.7,286047003.1,N
1635917495.6,286047004.6,N
1635917515.4,286047012.0,Y
1635917535.3,286047005.9,P
1635917555.1,286047007.1,P
1635917556.0,286047007.1,P
1635917575.8,286047008.6,Y
1635917595.7,286046998.8,P
1635917615.5,286047002.1,N
1635917635.4,286047000.9,N
1635917655.2,286047001.9,N
1635917675.0,286047001.8,N
1635917675.9,286047001.8,N
1635917695.8,286047002.7,N
1635917715.6,286047001.5,N
1635917735.4,286047001.6,N
1635917755.3,286047004.9,N
1635917775.1,286047003.8,N
1635917795.9,286047003.2,N
1635917815.7,286047004.4,N
1635917835.5,286046998.8,N
1635917855.4,286047000.8,N
1635917875.2,286047003.1,N
1635917895.0,286046998.6,N
1635917895.9,286046998.6,N
1635917915.8,286046998.2,N
1635917935.6,286047001.6,N
1635917955.5,286047003.4,N
1635917975.3,286047005.4,N
1635917995.1,286047003.6,N
1635918015.9,286046995.3,N
1635918035.7,286046993.7,N
1635918055.5,286046996.0,N
1635918075.4,286046994.6,N
1635918095.2,286046992.4,N
1635918115.1,286046994.5,N
1635918116.0,286046994.5,N
1635918135.8,286046995.3,N
1635918155.6,286047001.0,N
1635918175.5,286046999.2,N
1635918195.3,286046999.9,N
1635918215.1,286047007.2,N
1635918235.9,286047009.4,N
1635918255.7,286047009.0,N
1635918275.6,286047006.3,N
1635918295.4,286047005.3,N
1635918315.2,286047001.5,N
1635918335.1,286047002.0,N
1635918336.0,286047002.0,N
1635918355.8,286047002.6,N
1635918375.6,286046999.5,N
1635918395.5,286046998.7,N
1635918415.3,286047004.3,N
1635918435.2,286047003.5,N
1635918455.9,286047005.5,N
1635918475.7,286047005.0,N
1635918495.6,286047003.3,N
1635918515.4,286047001.4,N
1635918535.2,286047004.4,N
1635918555.1,286047003.3,N
1635918556.0,286047003.3,N
1635918575.8,286047006.0,N
1635918595.7,286047007.3,N
1635918615.5,286047005.8,N
1635918635.3,286047003.8,N
1635918655.2,286047007.1,N
1635918675.0,286047008.1,N
1635918675.9,286047008.1,N
1635918695.8,286047010.5,Y
1635918715.6,286047002.0,P
1635918735.4,286047004.1,P
1635918755.3,286047009.6,P
1635918775.1,286047011.3,Y
1635918795.8,286047007.1,P
1635918815.7,286047003.0,N
1635918835.5,286047004.0,N
1635918855.4,286047007.0,Y
1635918875.2,286047001.3,P
1635918895.0,286047001.7,N
1635918895.9,286047001.7,N
1635918915.8,286047001.7,N
1635918935.6,286047001.2,N
1635918955.5,286047001.2,N
1635918975.3,286046997.2,N
1635918995.1,286046997.6,N
1635919015.9,286046996.9,N
1635919035.7,286046996.6,N
1635919055.5,286046997.7,N
1635919075.4,286046999.6,N
1635919095.2,286046997.1,N
1635919115.0,286046999.6,N
1635919116.0,286046999.6,N
1635919135.8,286046997.9,N
1635919155.6,286046999.2,N
1635919175.5,286047000.8,N
1635919195.3,286046998.8,N
